Total_Precipitation_Accumulation
0.45 1.43 1.12 0.97 0.87 0.69 0.58 0.53 0.52 0.40 0.69 0.71 0.65 0.47 0.42 0.28 0.13 0.22 0.31 0.38 0.30 0.16 0.07 0.01 0.00 0.00 0.00 0.00 0.00 0.00 0.00 0.00 0.00 0.01 0.00 0.00 0.00 0.00 0.00 0.00 0.00 0.00 0.00
0.14 0.99 1.36 1.51 1.01 0.81 0.89 0.69 0.66 0.75 0.67 0.75 0.74 0.69 0.64 0.60 0.51 0.49 0.43 0.45 0.42 0.44 0.41 0.28 0.14 0.05 0.03 0.02 0.02 0.00 0.00 0.00 0.00 0.03 0.02 0.01 0.00 0.00 0.00 0.00 0.00 0.00 0.00
0.05 0.27 0.88 1.31 1.30 1.01 0.99 1.02 0.89 0.86 0.73 0.96 1.25 1.37 1.37 1.19 1.03 0.66 0.60 0.73 0.64 0.72 0.76 0.71 0.72 0.66 0.47 0.35 0.31 0.17 0.12 0.15 0.10 0.08 0.08 0.04 0.01 0.00 0.00 0.00 0.00 0.00 0.00
0.06 0.11 0.31 0.82 0.86 0.89 0.82 0.90 1.12 1.16 1.23 1.01 1.33 1.54 1.81 1.80 1.56 1.80 1.49 1.05 0.94 0.96 1.07 1.20 1.25 1.13 0.89 0.98 1.14 1.07 0.89 0.78 0.61 0.47 0.33 0.22 0.11 0.04 0.01 0.00 0.00 0.00 0.00
0.17 0.05 0.06 0.20 0.47 0.50 0.57 0.56 0.73 1.09 1.71 1.45 1.56 1.94 1.67 1.65 1.59 1.55 1.63 1.30 1.27 1.03 0.95 1.11 1.27 1.40 1.38 1.11 1.03 1.22 1.27 1.21 1.15 0.95 0.69 0.50 0.36 0.25 0.14 0.02 0.00 0.00 0.00
0.36 0.16 0.06 0.04 0.12 0.22 0.31 0.41 0.46 0.71 1.17 1.89 2.04 2.14 2.26 1.88 1.64 1.54 1.53 1.41 0.98 0.86 0.82 0.91 1.06 1.07 0.95 0.89 0.80 0.63 0.58 0.63 0.66 0.68 0.63 0.55 0.52 0.45 0.42 0.27 0.08 0.04 0.02
0.37 0.31 0.15 0.06 0.09 0.11 0.11 0.13 0.21 0.34 0.66 0.93 1.08 1.28 1.46 1.17 0.97 1.03 0.98 0.95 0.78 0.55 0.46 0.44 0.48 0.48 0.48 0.54 0.47 0.33 0.27 0.27 0.31 0.35 0.40 0.50 0.46 0.35 0.30 0.29 0.14 0.03 0.00
0.25 0.36 0.31 0.16 0.15 0.15 0.07 0.02 0.05 0.10 0.19 0.50 0.81 0.96 0.96 0.83 0.52 0.45 0.53 0.48 0.35 0.30 0.30 0.26 0.24 0.24 0.28 0.31 0.27 0.20 0.13 0.10 0.07 0.07 0.11 0.18 0.24 0.21 0.15 0.17 0.14 0.05 0.01
0.32 0.32 0.48 0.39 0.14 0.14 0.06 0.02 0.02 0.04 0.04 0.07 0.13 0.34 0.51 0.49 0.38 0.41 0.20 0.18 0.21 0.23 0.31 0.26 0.20 0.17 0.21 0.28 0.26 0.19 0.16 0.16 0.11 0.06 0.03 0.05 0.06 0.06 0.03 0.02 0.03 0.04 0.03
0.28 0.33 0.53 0.59 0.19 0.15 0.06 0.02 0.00 0.00 0.01 0.01 0.01 0.02 0.06 0.16 0.30 0.33 0.24 0.08 0.16 0.27 0.63 0.62 0.27 0.13 0.11 0.18 0.22 0.19 0.14 0.12 0.15 0.13 0.06 0.04 0.04 0.01 0.00 0.00 0.00 0.01 0.03
0.13 0.11 0.19 0.42 0.13 0.06 0.01 0.00 0.00 0.00 0.00 0.00 0.00 0.00 0.00 0.00 0.01 0.03 0.12 0.16 0.18 0.19 0.28 0.38 0.40 0.26 0.15 0.17 0.16 0.14 0.14 0.13 0.10 0.09 0.07 0.07 0.03 0.01 0.01 0.01 0.01 0.01 0.02
0.16 0.22 0.14 0.13 0.04 0.01 0.00 0.00 0.00 0.00 0.00 0.00 0.00 0.00 0.00 0.00 0.00 0.00 0.00 0.00 0.00 0.00 0.01 0.02 0.03 0.03 0.04 0.06 0.04 0.03 0.05 0.07 0.07 0.07 0.05 0.05 0.03 0.01 0.01 0.00 0.00 0.00 0.00
0.09 0.06 0.01 0.00 0.00 0.00 0.00 0.00 0.00 0.00 0.00 0.00 0.00 0.00 0.00 0.00 0.00 0.00 0.00 0.00 0.00 0.00 0.00 0.00 0.00 0.00 0.01 0.02 0.03 0.03 0.03 0.04 0.03 0.03 0.03 0.02 0.02 0.01 0.00 0.00 0.00 0.00 0.00
0.00 0.00 0.00 0.00 0.00 0.00 0.00 0.00 0.00 0.00 0.00 0.00 0.00 0.00 0.00 0.00 0.00 0.00 0.00 0.00 0.00 0.00 0.00 0.00 0.00 0.00 0.00 0.00 0.01 0.03 0.03 0.05 0.05 0.05 0.06 0.04 0.02 0.01 0.00 0.00 0.00 0.00 0.00
0.00 0.00 0.00 0.00 0.00 0.00 0.00 0.00 0.00 0.00 0.00 0.00 0.00 0.00 0.00 0.00 0.00 0.00 0.00 0.00 0.00 0.00 0.00 0.00 0.00 0.00 0.00 0.00 0.00 0.01 0.02 0.03 0.03 0.05 0.04 0.03 0.03 0.02 0.01 0.00 0.00 0.00 0.00
0.00 0.00 0.00 0.00 0.00 0.00 0.00 0.00 0.00 0.00 0.00 0.00 0.00 0.00 0.00 0.00 0.00 0.00 0.00 0.00 0.00 0.00 0.00 0.00 0.00 0.00 0.00 0.00 0.00 0.00 0.00 0.01 0.02 0.02 0.02 0.02 0.03 0.02 0.02 0.02 0.01 0.01 0.00
0.00 0.00 0.00 0.00 0.00 0.00 0.00 0.00 0.00 0.00 0.00 0.00 0.00 0.00 0.00 0.00 0.00 0.00 0.00 0.00 0.00 0.00 0.00 0.00 0.00 0.00 0.00 0.00 0.00 0.00 0.00 0.00 0.00 0.00 0.01 0.01 0.01 0.02 0.00 0.01 0.00 0.00 0.00
0.00 0.00 0.00 0.00 0.00 0.00 0.00 0.00 0.00 0.00 0.00 0.00 0.00 0.00 0.00 0.00 0.00 0.00 0.00 0.00 0.00 0.00 0.00 0.00 0.00 0.00 0.00 0.00 0.00 0.01 0.00 0.00 0.01 0.01 0.01 0.00 0.00 0.00 0.00 0.00 0.00 0.00 0.00
0.00 0.00 0.00 0.00 0.00 0.00 0.00 0.00 0.00 0.00 0.00 0.00 0.00 0.00 0.00 0.00 0.00 0.00 0.00 0.00 0.00 0.00 0.00 0.00 0.00 0.00 0.00 0.01 0.00 0.00 0.00 0.00 0.00 0.00 0.00 0.00 0.00 0.01 0.00 0.00 0.00 0.00 0.00
0.00 0.00 0.00 0.00 0.00 0.00 0.00 0.00 0.00 0.00 0.00 0.00 0.00 0.00 0.00 0.00 0.00 0.00 0.00 0.00 0.00 0.00 0.00 0.00 0.00 0.00 0.00 0.01 0.00 0.00 0.00 0.00 0.00 0.00 0.00 0.01 0.00 0.00 0.00 0.00 0.00 0.00 0.00
0.00 0.00 0.00 0.00 0.00 0.00 0.00 0.00 0.00 0.00 0.00 0.00 0.00 0.00 0.00 0.00 0.00 0.00 0.00 0.00 0.00 0.00 0.00 0.00 0.00 0.00 0.01 0.01 0.01 0.01 0.00 0.00 0.00 0.00 0.00 0.00 0.00 0.00 0.00 0.00 0.00 0.00 0.00
0.00 0.00 0.00 0.00 0.00 0.00 0.00 0.00 0.00 0.00 0.00 0.00 0.00 0.00 0.00 0.00 0.00 0.00 0.00 0.00 0.00 0.00 0.00 0.00 0.00 0.00 0.00 0.01 0.01 0.02 0.02 0.01 0.00 0.00 0.00 0.00 0.00 0.00 0.00 0.00 0.00 0.00 0.00
0.00 0.00 0.00 0.00 0.00 0.00 0.00 0.00 0.00 0.00 0.00 0.00 0.00 0.00 0.00 0.00 0.00 0.00 0.00 0.00 0.00 0.00 0.00 0.00 0.00 0.00 0.00 0.00 0.04 0.05 0.06 0.05 0.02 0.01 0.01 0.01 0.01 0.00 0.00 0.01 0.00 0.00 0.00
0.00 0.00 0.00 0.00 0.00 0.00 0.00 0.00 0.00 0.00 0.00 0.00 0.00 0.00 0.00 0.00 0.00 0.00 0.00 0.00 0.00 0.00 0.00 0.01 0.01 0.00 0.00 0.00 0.02 0.06 0.09 0.10 0.05 0.03 0.08 0.10 0.06 0.03 0.01 0.00 0.00 0.00 0.00
0.00 0.00 0.00 0.00 0.00 0.00 0.00 0.00 0.00 0.00 0.00 0.00 0.00 0.00 0.00 0.00 0.00 0.00 0.00 0.00 0.00 0.02 0.02 0.01 0.01 0.03 0.04 0.04 0.14 0.17 0.15 0.16 0.18 0.16 0.11 0.11 0.09 0.06 0.03 0.01 0.00 0.00 0.00
0.00 0.00 0.00 0.00 0.00 0.00 0.00 0.00 0.00 0.01 0.01 0.00 0.00 0.00 0.01 0.02 0.03 0.03 0.03 0.08 0.08 0.07 0.06 0.05 0.04 0.04 0.07 0.12 0.19 0.18 0.21 0.24 0.31 0.24 0.15 0.18 0.09 0.04 0.03 0.02 0.02 0.01 0.01